Tracking 28309 objects as of 1-Dec-2023
HD Live streaming from Space Station
objects crossing your sky now

CRRES DEB (CANISTER)

Track CRRES DEB (CANISTER) now!


NORAD ID: 21588
Int'l Code: 1990-065D
Perigee: 378.2 km
Apogee: 32,330.3 km
Inclination: 18.0 °
Period: 568.2 minutes
Semi major axis: 22725 km
RCS: 0.1213 m2 (medium)
Launch date: July 25, 1990
Source: United States (US)
Launch site: AIR FORCE EASTERN TEST RANGE (AFETR)

Note: This is SATELLITE DEBRIS
Your satellite tracking list
Your tracking list is empty




NASA's NSSDC Master Catalog

Two Line Element Set (TLE):
1 21588U 90065D   23332.82757503  .00000937  00000-0  15000-2 0  9991
2 21588  17.9632 221.6091 7030087  93.1716 342.1062  2.53419308102519
Source of the keplerian elements: AFSPC